This demonstration page uses our WeatherBlox Daily Observations layout. Learn more.

Left ArrowRight Arrow

39.12711, -84.51439

Hourly Observations for September 2, 2018

Temp ( °F °C ) Dew Point ( °F °C ) Humidity (%) Winds ( mph kmh ) Pressure ( in mb ) Visibility ( mi km ) Precip ( " mm )
12:53 am 00:53 Clear 72 22.2 72 22.2 100 100 Calm 30.12 1020 7 11 0.00 0.00
1:53 am 01:53 Clear 71 21.7 71 21.7 100 100 Calm 30.13 1020 7 11 0.00 0.00
2:04 am 02:04 Clear with Mist and Fog 71 21.7 71 21.7 100 100 Calm 30.12 1020 2 2 0.00 0.00
2:26 am 02:26 Clear with Mist and Fog 70 21.1 70 21.1 100 100 Calm 30.12 1020 3 5 0.00 0.00
2:32 am 02:32 Mostly Clear with Mist and Fog 71 21.7 71 21.7 100 100 Calm 30.12 1020 2 2 0.00 0.00
2:42 am 02:42 Clear with Mist and Fog 71 21.7 71 21.7 100 100 Calm 30.12 1020 5 8 0.00 0.00
2:53 am 02:53 Clear with Mist and Fog 70 21.1 70 21.1 100 100 Calm 30.14 1021 2 3 0.00 0.00
3:04 am 03:04 Clear with Mist and Fog 70 21.1 70 21.1 100 100 Calm 30.12 1020 3 5 0.00 0.00
3:17 am 03:17 Clear with Mist and Fog 69 20.6 69 20.6 100 100 Calm 30.12 1020 1 2 0.00 0.00
3:25 am 03:25 Clear with Mist and Fog 70 21.1 70 21.1 100 100 Calm 30.12 1020 1 1 0.00 0.00
3:30 am 03:30 Clear with Mist and Fog 69 20.6 69 20.6 100 100 Calm 30.15 1021 3 4 0.00 0.00
3:37 am 03:37 Clear with Mist and Fog 70 21.1 70 21.1 100 100 Calm 30.15 1021 1 1 0.00 0.00
3:46 am 03:46 Mostly Clear with Mist and Fog 69 20.6 69 20.6 100 100 Calm 30.12 1020 2 2 0.00 0.00
3:48 am 03:48 Mostly Clear with Mist and Fog 70 21 70 21 100 100 Calm 30.15 1021 3 5 0.00 0.00
3:53 am 03:53 Partly Cloudy with Mist and Fog 69 20.6 69 20.6 100 100 Calm 30.15 1021 2 2 0.00 0.00
3:56 am 03:56 Mostly Cloudy with Mist and Fog 69 20.6 69 20.6 100 100 Calm 30.15 1021 1 1 0.00 0.00
4:07 am 04:07 Mostly Cloudy with Fog 69 20.6 69 20.6 100 100 Calm 30.15 1021 0 0 0.00 0.00
4:19 am 04:19 Mostly Cloudy with Fog 69 20.6 69 20.6 100 100 Calm 30.15 1021 1 1 0.00 0.00
4:31 am 04:31 Mostly Cloudy with Mist and Fog 69 20.6 69 20.6 100 100 Calm 30.15 1021 1 2 0.00 0.00
4:38 am 04:38 Mostly Cloudy with Fog 70 21.1 70 21.1 100 100 Calm 30.15 1021 1 1 0.00 0.00
4:48 am 04:48 Mostly Cloudy with Fog 70 21 70 21 100 100 Calm 30.15 1021 0 0 0.00 0.00
4:53 am 04:53 Cloudy with Fog 69 20.6 69 20.6 100 100 Calm 30.16 1021 1 1 0.00 0.00
5:01 am 05:01 Mostly Cloudy with Mist and Fog 69 20.6 69 20.6 100 100 Calm 30.15 1021 1 2 0.00 0.00
5:08 am 05:08 Mostly Cloudy with Fog 69 20.6 69 20.6 100 100 Calm 30.15 1021 0 0 0.00 0.00
5:51 am 05:51 Mostly Cloudy with Fog 70 21 70 21 100 100 Calm 30.15 1021 1 1 0.00 0.00
5:53 am 05:53 Mostly Cloudy with Fog 69 20.6 69 20.6 100 100 Calm 30.17 1022 0 0 0.00 0.00
6:33 am 06:33 Mostly Cloudy with Fog 69 20.6 69 20.6 100 100 Calm 30.18 1022 1 1 0.00 0.00
6:53 am 06:53 Mostly Cloudy with Fog 70 21.1 70 21.1 100 100 Calm 30.19 1022 1 1 0.00 0.00
7:50 am 07:50 Partly Cloudy with Mist and Fog 70 21 70 21 100 100 Calm 30.18 1022 2 3 0.00 0.00
7:53 am 07:53 Partly Cloudy with Patchy Fog 69 20.6 69 20.6 100 100 Calm 30.21 1023 3 4 0.00 0.00
8:02 am 08:02 Partly Cloudy with Patchy Fog 69 20.6 69 20.6 100 100 Calm 30.18 1022 4 6 0.00 0.00
8:53 am 08:53 Sunny with Mist and Fog 71 21.7 71 21.7 100 100 Calm 30.22 1023 4 6 0.00 0.00
9:53 am 09:53 Sunny 77 25 75 23.9 94 94 S 5 7 30.22 1023 10 16 0.00 0.00
10:53 am 10:53 Partly Cloudy 80 26.7 74 23.3 82 82 S 7 11 30.22 1023 10 16 0.00 0.00
11:53 am 11:53 Sunny 84 28.9 75 23.9 74 74 Calm 30.20 1023 10 16 0.00 0.00
12:53 pm 12:53 Partly Cloudy 86 30 75 23.9 70 70 S 7 11 30.18 1022 10 16 0.00 0.00
1:53 pm 13:53 Mostly Cloudy 87 30.6 74 23.3 65 65 SW 6 9 30.17 1022 10 16 0.00 0.00
2:53 pm 14:53 Partly Cloudy 89 31.7 74 23.3 61 61 SSW 6 9 30.16 1021 10 16 0.00 0.00
3:53 pm 15:53 Partly Cloudy 89 31.7 72 22.2 57 57 SSE 8 13 30.14 1021 10 16 0.00 0.00
4:53 pm 16:53 Partly Cloudy 89 31.7 74 23.3 61 61 SSW 9 15 30.14 1021 10 16 0.00 0.00
5:53 pm 17:53 Partly Cloudy 88 31.1 74 23.3 63 63 SSE 9 15 30.13 1020 10 16 0.00 0.00
6:53 pm 18:53 Mostly Sunny 87 30.6 74 23.3 65 65 S 10 17 30.13 1020 10 16 0.00 0.00
7:53 pm 19:53 Mostly Sunny 83 28.3 74 23.3 74 74 S 6 9 30.11 1020 10 16 0.00 0.00
8:53 pm 20:53 Mostly Clear 81 27.2 74 23.3 79 79 Calm 30.13 1020 10 16 0.00 0.00
9:53 pm 21:53 Clear 77 25 75 23.9 94 94 Calm 30.16 1021 10 16 0.00 0.00
10:53 pm 22:53 Clear 75 23.9 74 23.3 96 96 Calm 30.18 1022 10 16 0.00 0.00
11:53 pm 23:53 Clear 73 22.8 73 22.8 100 100 Calm 30.20 1023 8 13 0.00 0.00

Powered by AerisWeather